Time,TemperatureF,DewpointF,PressureIn,WindDirection,WindDirectionDegrees,WindSpeedMPH,WindSpeedGustMPH,Humidity,HourlyPrecipIn,Conditions,Clouds,dailyrainin,SoftwareType,DateUTC
2013-06-23 00:01:00,60.4,55.3,29.83,SSW,202,0.0,0.0,83,0.00,,,0.00,WUHU21623XXSP,2013-06-23 07:01:00,
2013-06-23 00:02:00,60.4,55.3,29.83,SSW,202,0.0,0.0,83,0.00,,,0.00,WUHU21623XXSP,2013-06-23 07:02:00,
2013-06-23 00:03:00,60.4,55.3,29.83,SSW,202,0.0,0.0,83,0.00,,,0.00,WUHU21623XXSP,2013-06-23 07:03:00,
2013-06-23 00:04:00,60.4,55.3,29.83,SSW,202,0.0,0.0,83,0.00,,,0.00,WUHU21623XXSP,2013-06-23 07:04:00,
2013-06-23 00:06:00,60.4,55.2,29.83,North,0,0.0,0.0,83,0.00,,,0.00,WUHU21623XXSP,2013-06-23 07:06:00,
2013-06-23 00:08:00,60.4,55.3,29.83,SSW,202,0.0,0.0,83,0.00,,,0.00,WUHU21623XXSP,2013-06-23 07:08:00,
2013-06-23 00:09:00,60.4,55.6,29.83,SSW,202,0.0,0.0,84,0.00,,,0.00,WUHU21623XXSP,2013-06-23 07:09:00,
2013-06-23 00:11:00,60.4,55.6,29.83,SSW,202,0.0,0.0,84,0.00,,,0.00,WUHU21623XXSP,2013-06-23 07:11:00,
2013-06-23 00:13:00,60.4,55.6,29.83,SSW,202,0.0,0.0,84,0.00,,,0.00,WUHU21623XXSP,2013-06-23 07:13:00,
2013-06-23 00:14:00,60.4,55.6,29.83,SSW,202,0.0,0.0,84,0.00,,,0.00,WUHU21623XXSP,2013-06-23 07:14:00,
2013-06-23 00:17:00,60.6,55.8,29.83,SSW,202,0.0,0.0,84,0.00,,,0.00,WUHU21623XXSP,2013-06-23 07:17:00,
2013-06-23 00:18:00,60.4,55.6,29.83,SSW,202,0.0,0.0,84,0.00,,,0.00,WUHU21623XXSP,2013-06-23 07:18:00,
2013-06-23 00:19:00,60.4,55.6,29.83,SSW,202,0.0,0.0,84,0.00,,,0.00,WUHU21623XXSP,2013-06-23 07:19:00,
2013-06-23 00:22:00,60.6,55.8,29.83,SSW,202,0.0,0.0,84,0.00,,,0.00,WUHU21623XXSP,2013-06-23 07:22:00,
2013-06-23 00:23:00,60.6,55.8,29.83,SSW,202,0.0,0.0,84,0.00,,,0.00,WUHU21623XXSP,2013-06-23 07:23:00,
2013-06-23 00:24:00,60.4,55.6,29.83,SSW,202,0.0,0.0,84,0.00,,,0.00,WUHU21623XXSP,2013-06-23 07:24:00,
2013-06-23 00:25:00,60.6,55.8,29.83,SSW,202,0.0,0.0,84,0.00,,,0.00,WUHU21623XXSP,2013-06-23 07:25:00,
2013-06-23 00:27:00,60.4,55.6,29.83,SSW,202,0.0,0.0,84,0.00,,,0.00,WUHU21623XXSP,2013-06-23 07:27:00,
2013-06-23 00:29:00,60.6,55.8,29.83,SSW,202,0.0,0.0,84,0.00,,,0.00,WUHU21623XXSP,2013-06-23 07:29:00,
2013-06-23 00:30:00,60.6,55.8,29.83,SSW,202,0.0,0.0,84,0.00,,,0.00,WUHU21623XXSP,2013-06-23 07:30:00,
2013-06-23 00:32:00,60.6,55.8,29.83,SSW,202,0.0,0.0,84,0.00,,,0.00,WUHU21623XXSP,2013-06-23 07:32:00,
2013-06-23 00:34:00,60.6,55.8,29.83,SSW,202,0.0,0.0,84,0.00,,,0.00,WUHU21623XXSP,2013-06-23 07:34:00,
2013-06-23 00:35:00,60.6,55.8,29.83,SSW,202,0.0,0.0,84,0.00,,,0.00,WUHU21623XXSP,2013-06-23 07:35:00,
2013-06-23 00:37:00,60.6,55.8,29.82,SSW,202,0.0,0.0,84,0.00,,,0.00,WUHU21623XXSP,2013-06-23 07:37:00,
2013-06-23 00:39:00,60.6,55.8,29.82,North,0,0.0,0.0,84,0.00,,,0.00,WUHU21623XXSP,2013-06-23 07:39:00,
2013-06-23 00:40:00,60.4,55.6,29.82,SSW,202,0.0,0.0,84,0.00,,,0.00,WUHU21623XXSP,2013-06-23 07:40:00,
2013-06-23 00:42:00,60.4,55.6,29.82,SSW,202,0.0,0.0,84,0.00,,,0.00,WUHU21623XXSP,2013-06-23 07:42:00,
2013-06-23 00:44:00,60.4,55.6,29.82,SSW,202,0.0,0.0,84,0.00,,,0.00,WUHU21623XXSP,2013-06-23 07:44:00,
2013-06-23 00:45:00,60.4,55.6,29.82,SSW,202,0.0,0.0,84,0.00,,,0.00,WUHU21623XXSP,2013-06-23 07:45:00,
2013-06-23 00:46:00,60.4,55.6,29.82,SSW,202,0.0,0.0,84,0.00,,,0.00,WUHU21623XXSP,2013-06-23 07:46:00,
2013-06-23 00:47:00,60.4,55.6,29.82,SSW,202,0.0,0.0,84,0.00,,,0.00,WUHU21623XXSP,2013-06-23 07:47:00,
2013-06-23 00:50:00,60.4,55.6,29.82,SSW,202,0.0,0.0,84,0.00,,,0.00,WUHU21623XXSP,2013-06-23 07:50:00,
2013-06-23 00:51:00,60.4,55.6,29.82,SSW,202,0.0,0.0,84,0.00,,,0.00,WUHU21623XXSP,2013-06-23 07:51:00,
2013-06-23 00:52:00,60.4,55.6,29.82,SSW,202,0.0,0.0,84,0.00,,,0.00,WUHU21623XXSP,2013-06-23 07:52:00,
2013-06-23 00:55:00,60.6,55.8,29.82,SSW,202,0.0,0.0,84,0.00,,,0.00,WUHU21623XXSP,2013-06-23 07:55:00,
2013-06-23 00:56:00,60.4,55.6,29.82,SSW,202,0.0,0.0,84,0.00,,,0.00,WUHU21623XXSP,2013-06-23 07:56:00,
2013-06-23 00:57:00,60.6,55.8,29.82,SSW,202,0.0,0.0,84,0.00,,,0.00,WUHU21623XXSP,2013-06-23 07:57:00,
2013-06-23 01:00:00,60.6,55.8,29.82,SSW,202,0.0,0.0,84,0.00,,,0.00,WUHU21623XXSP,2013-06-23 08:00:00,
2013-06-23 01:01:00,60.6,55.8,29.82,SSW,202,0.0,0.0,84,0.00,,,0.00,WUHU21623XXSP,2013-06-23 08:01:00,
2013-06-23 01:02:00,60.6,55.8,29.82,SSW,202,0.0,0.0,84,0.00,,,0.00,WUHU21623XXSP,2013-06-23 08:02:00,
2013-06-23 01:05:00,60.6,55.8,29.82,SSW,202,0.0,0.0,84,0.00,,,0.00,WUHU21623XXSP,2013-06-23 08:05:00,
2013-06-23 01:06:00,60.6,55.8,29.82,SSW,202,0.0,0.0,84,0.00,,,0.00,WUHU21623XXSP,2013-06-23 08:06:00,
2013-06-23 01:08:00,60.6,56.1,29.82,South,180,0.0,0.0,85,0.00,,,0.00,WUHU21623XXSP,2013-06-23 08:08:00,
2013-06-23 01:11:00,60.6,56.1,29.81,South,180,0.0,0.0,85,0.00,,,0.00,WUHU21623XXSP,2013-06-23 08:11:00,
2013-06-23 01:12:00,60.6,56.1,29.81,South,180,0.0,0.0,85,0.00,,,0.00,WUHU21623XXSP,2013-06-23 08:12:00,
2013-06-23 01:13:00,60.6,56.1,29.81,South,180,0.0,0.0,85,0.00,,,0.00,WUHU21623XXSP,2013-06-23 08:13:00,
2013-06-23 01:16:00,60.6,56.1,29.81,South,180,0.0,0.0,85,0.00,,,0.00,WUHU21623XXSP,2013-06-23 08:16:00,
2013-06-23 01:17:00,60.6,56.1,29.81,South,180,0.0,0.0,85,0.00,,,0.00,WUHU21623XXSP,2013-06-23 08:17:00,
2013-06-23 01:18:00,60.6,56.1,29.81,South,180,0.0,0.0,85,0.00,,,0.00,WUHU21623XXSP,2013-06-23 08:18:00,
2013-06-23 01:21:00,60.6,56.1,29.81,ESE,112,0.0,1.3,85,0.00,,,0.00,WUHU21623XXSP,2013-06-23 08:21:00,
2013-06-23 01:22:00,60.6,56.1,29.81,ESE,112,0.0,1.3,85,0.00,,,0.00,WUHU21623XXSP,2013-06-23 08:22:00,
2013-06-23 01:23:00,60.6,56.1,29.81,ESE,112,0.0,1.3,85,0.00,,,0.00,WUHU21623XXSP,2013-06-23 08:23:00,
2013-06-23 01:24:00,60.6,56.1,29.81,ESE,112,0.0,1.3,85,0.00,,,0.00,WUHU21623XXSP,2013-06-23 08:24:00,
2013-06-23 01:26:00,60.6,56.1,29.80,ESE,112,1.3,1.3,85,0.00,,,0.00,WUHU21623XXSP,2013-06-23 08:26:00,
2013-06-23 01:27:00,60.6,56.1,29.80,ESE,112,0.0,1.3,85,0.00,,,0.00,WUHU21623XXSP,2013-06-23 08:27:00,
2013-06-23 01:29:00,60.6,56.1,29.81,ESE,112,0.0,1.3,85,0.00,,,0.00,WUHU21623XXSP,2013-06-23 08:29:00,
2013-06-23 01:30:00,60.6,56.1,29.81,ESE,112,0.0,1.3,85,0.00,,,0.00,WUHU21623XXSP,2013-06-23 08:30:00,
2013-06-23 01:31:00,60.6,56.1,29.81,ESE,112,0.0,1.3,85,0.00,,,0.00,WUHU21623XXSP,2013-06-23 08:31:00,
2013-06-23 01:32:00,60.6,56.1,29.81,ESE,112,0.0,1.3,85,0.00,,,0.00,WUHU21623XXSP,2013-06-23 08:32:00,
2013-06-23 01:34:00,60.6,56.1,29.81,ESE,112,0.0,1.3,85,0.00,,,0.00,WUHU21623XXSP,2013-06-23 08:34:00,
2013-06-23 01:35:00,60.6,56.1,29.81,ESE,112,0.0,1.3,85,0.00,,,0.00,WUHU21623XXSP,2013-06-23 08:35:00,
2013-06-23 01:37:00,60.6,56.1,29.80,ESE,112,0.0,0.0,85,0.00,,,0.00,WUHU21623XXSP,2013-06-23 08:37:00,
2013-06-23 01:38:00,60.6,56.1,29.80,ESE,112,0.0,0.0,85,0.00,,,0.00,WUHU21623XXSP,2013-06-23 08:38:00,
2013-06-23 01:39:00,60.6,56.1,29.80,ESE,112,0.0,0.0,85,0.00,,,0.00,WUHU21623XXSP,2013-06-23 08:39:00,
2013-06-23 01:41:00,60.6,56.4,29.80,ESE,112,0.0,0.0,86,0.00,,,0.00,WUHU21623XXSP,2013-06-23 08:41:00,
2013-06-23 01:42:00,60.6,56.4,29.80,North,0,0.0,0.0,86,0.00,,,0.00,WUHU21623XXSP,2013-06-23 08:42:00,
2013-06-23 01:43:00,60.6,56.4,29.80,ESE,112,0.0,0.0,86,0.00,,,0.00,WUHU21623XXSP,2013-06-23 08:43:00,
2013-06-23 01:44:00,60.6,56.4,29.80,ESE,112,0.0,0.0,86,0.00,,,0.00,WUHU21623XXSP,2013-06-23 08:44:00,
2013-06-23 01:46:00,60.6,56.4,29.80,ESE,112,0.0,0.0,86,0.00,,,0.00,WUHU21623XXSP,2013-06-23 08:46:00,
2013-06-23 01:47:00,60.6,56.4,29.80,ESE,112,0.0,0.0,86,0.00,,,0.00,WUHU21623XXSP,2013-06-23 08:47:00,
2013-06-23 01:48:00,60.6,56.4,29.80,ESE,112,0.0,0.0,86,0.00,,,0.00,WUHU21623XXSP,2013-06-23 08:48:00,
2013-06-23 01:49:00,60.6,56.4,29.80,ESE,112,0.0,0.0,86,0.00,,,0.00,WUHU21623XXSP,2013-06-23 08:49:00,
2013-06-23 01:51:00,60.6,56.4,29.80,ESE,112,0.0,0.0,86,0.00,,,0.00,WUHU21623XXSP,2013-06-23 08:51:00,
2013-06-23 01:52:00,60.6,56.4,29.80,ESE,112,0.0,0.0,86,0.00,,,0.00,WUHU21623XXSP,2013-06-23 08:52:00,
2013-06-23 01:54:00,60.6,56.4,29.80,ESE,112,0.0,0.0,86,0.00,,,0.00,WUHU21623XXSP,2013-06-23 08:54:00,
2013-06-23 01:56:00,60.6,56.4,29.80,ESE,112,0.0,0.0,86,0.00,,,0.00,WUHU21623XXSP,2013-06-23 08:56:00,
2013-06-23 01:57:00,60.6,56.4,29.80,ESE,112,0.0,0.0,86,0.00,,,0.00,WUHU21623XXSP,2013-06-23 08:57:00,
2013-06-23 01:59:00,60.6,56.4,29.80,ESE,112,0.0,0.0,86,0.00,,,0.00,WUHU21623XXSP,2013-06-23 08:59:00,
2013-06-23 02:01:00,60.6,56.4,29.80,ESE,112,0.0,0.0,86,0.00,,,0.00,WUHU21623XXSP,2013-06-23 09:01:00,
2013-06-23 02:02:00,60.6,56.4,29.80,ESE,112,0.0,0.0,86,0.00,,,0.00,WUHU21623XXSP,2013-06-23 09:02:00,
2013-06-23 02:04:00,60.6,56.4,29.80,ESE,112,0.0,0.0,86,0.00,,,0.00,WUHU21623XXSP,2013-06-23 09:04:00,
2013-06-23 02:05:00,60.6,56.4,29.80,ESE,112,0.0,0.0,86,0.00,,,0.00,WUHU21623XXSP,2013-06-23 09:05:00,
2013-06-23 02:06:00,60.6,56.4,29.80,ESE,112,0.0,0.0,86,0.00,,,0.00,WUHU21623XXSP,2013-06-23 09:06:00,
2013-06-23 02:07:00,60.6,56.4,29.80,ESE,112,0.0,0.0,86,0.00,,,0.00,WUHU21623XXSP,2013-06-23 09:07:00,
2013-06-23 02:08:00,60.6,56.4,29.80,SE,135,0.0,0.0,86,0.00,,,0.00,WUHU21623XXSP,2013-06-23 09:08:00,
2013-06-23 02:09:00,60.6,56.4,29.80,SSE,157,0.0,0.0,86,0.00,,,0.00,WUHU21623XXSP,2013-06-23 09:09:00,
2013-06-23 02:10:00,60.6,56.4,29.80,SSE,157,0.0,0.0,86,0.00,,,0.00,WUHU21623XXSP,2013-06-23 09:10:00,
2013-06-23 02:11:00,60.6,56.4,29.80,SSW,202,0.0,0.0,86,0.00,,,0.00,WUHU21623XXSP,2013-06-23 09:11:00,
2013-06-23 02:12:00,60.6,56.4,29.80,SE,135,0.0,0.0,86,0.00,,,0.00,WUHU21623XXSP,2013-06-23 09:12:00,
2013-06-23 02:13:00,60.6,56.4,29.80,SSE,157,0.0,0.0,86,0.00,,,0.00,WUHU21623XXSP,2013-06-23 09:13:00,
2013-06-23 02:14:00,60.6,56.4,29.80,SSE,157,0.0,0.0,86,0.00,,,0.00,WUHU21623XXSP,2013-06-23 09:14:00,
2013-06-23 02:15:00,60.6,56.4,29.80,SSE,157,0.0,0.0,86,0.00,,,0.00,WUHU21623XXSP,2013-06-23 09:15:00,
2013-06-23 02:16:00,60.6,56.4,29.79,WSW,247,0.0,0.0,86,0.00,,,0.00,WUHU21623XXSP,2013-06-23 09:16:00,
2013-06-23 02:17:00,60.6,56.4,29.79,ESE,112,0.0,0.0,86,0.00,,,0.00,WUHU21623XXSP,2013-06-23 09:17:00,
2013-06-23 02:19:00,60.6,56.4,29.79,SSE,157,0.0,0.0,86,0.00,,,0.00,WUHU21623XXSP,2013-06-23 09:19:00,
2013-06-23 02:20:00,60.6,56.4,29.79,SSE,157,0.0,0.0,86,0.00,,,0.00,WUHU21623XXSP,2013-06-23 09:20:00,
2013-06-23 02:22:00,60.6,56.4,29.80,South,180,0.0,2.0,86,0.00,,,0.00,WUHU21623XXSP,2013-06-23 09:22:00,
2013-06-23 02:24:00,60.6,56.4,29.80,SSE,157,0.0,2.0,86,0.00,,,0.00,WUHU21623XXSP,2013-06-23 09:24:00,
2013-06-23 02:25:00,60.6,56.4,29.79,SSE,157,0.0,2.0,86,0.00,,,0.00,WUHU21623XXSP,2013-06-23 09:25:00,
2013-06-23 02:27:00,60.6,56.4,29.79,WSW,247,0.0,2.0,86,0.00,,,0.00,WUHU21623XXSP,2013-06-23 09:27:00,
2013-06-23 02:29:00,60.6,56.4,29.79,SW,225,0.0,2.0,86,0.00,,,0.00,WUHU21623XXSP,2013-06-23 09:29:00,
2013-06-23 02:30:00,60.6,56.4,29.79,ESE,112,0.0,2.0,86,0.00,,,0.00,WUHU21623XXSP,2013-06-23 09:30:00,
2013-06-23 02:32:00,60.6,56.4,29.80,SE,135,1.3,2.0,86,0.00,,,0.00,WUHU21623XXSP,2013-06-23 09:32:00,
2013-06-23 02:34:00,60.6,56.4,29.79,SSW,202,0.0,1.6,86,0.00,,,0.00,WUHU21623XXSP,2013-06-23 09:34:00,
2013-06-23 02:35:00,60.6,56.4,29.80,SW,225,0.0,1.6,86,0.00,,,0.00,WUHU21623XXSP,2013-06-23 09:35:00,
2013-06-23 02:37:00,60.6,56.4,29.79,ESE,112,0.0,1.6,86,0.00,,,0.00,WUHU21623XXSP,2013-06-23 09:37:00,
2013-06-23 02:38:00,60.6,56.4,29.79,ESE,112,0.0,1.6,86,0.00,,,0.00,WUHU21623XXSP,2013-06-23 09:38:00,
2013-06-23 02:39:00,60.6,56.4,29.80,South,180,1.8,2.5,86,0.00,,,0.00,WUHU21623XXSP,2013-06-23 09:39:00,
2013-06-23 02:40:00,60.6,56.8,29.80,SE,135,1.1,2.5,87,0.00,,,0.00,WUHU21623XXSP,2013-06-23 09:40:00,
2013-06-23 02:43:00,60.4,56.6,29.79,ESE,112,0.0,3.8,87,0.00,,,0.00,WUHU21623XXSP,2013-06-23 09:43:00,
2013-06-23 02:44:00,60.6,56.8,29.79,SSE,157,0.0,3.8,87,0.00,,,0.00,WUHU21623XXSP,2013-06-23 09:44:00,
2013-06-23 02:45:00,60.4,56.6,29.79,SSE,157,0.0,3.8,87,0.00,,,0.00,WUHU21623XXSP,2013-06-23 09:45:00,
2013-06-23 02:48:00,60.4,56.6,29.79,SSE,157,0.0,3.8,87,0.00,,,0.00,WUHU21623XXSP,2013-06-23 09:48:00,
2013-06-23 02:49:00,60.4,56.6,29.78,South,180,0.0,3.8,87,0.00,,,0.00,WUHU21623XXSP,2013-06-23 09:49:00,
2013-06-23 02:50:00,60.4,56.6,29.78,South,180,0.0,3.8,87,0.00,,,0.00,WUHU21623XXSP,2013-06-23 09:50:00,
2013-06-23 02:53:00,60.4,56.6,29.78,NNW,337,0.0,2.0,87,0.00,,,0.00,WUHU21623XXSP,2013-06-23 09:53:00,
2013-06-23 02:55:00,60.4,56.6,29.78,South,180,0.0,2.0,87,0.00,,,0.00,WUHU21623XXSP,2013-06-23 09:55:00,
2013-06-23 02:58:00,60.4,56.6,29.78,SSE,157,0.0,3.1,87,0.00,,,0.00,WUHU21623XXSP,2013-06-23 09:58:00,
2013-06-23 03:00:00,60.4,56.6,29.78,SSE,157,0.0,3.1,87,0.00,,,0.00,WUHU21623XXSP,2013-06-23 10:00:00,
2013-06-23 03:03:00,60.4,56.6,29.78,SSE,157,0.0,3.1,87,0.00,,,0.00,WUHU21623XXSP,2013-06-23 10:03:00,
2013-06-23 03:05:00,60.4,56.6,29.78,SSE,157,0.0,3.1,87,0.00,,,0.00,WUHU21623XXSP,2013-06-23 10:05:00,
2013-06-23 03:06:00,60.4,56.6,29.78,ESE,112,0.0,3.1,87,0.00,,,0.00,WUHU21623XXSP,2013-06-23 10:06:00,
2013-06-23 03:08:00,60.4,56.6,29.78,SSE,157,0.0,3.1,87,0.00,,,0.00,WUHU21623XXSP,2013-06-23 10:08:00,
2013-06-23 03:10:00,60.4,56.6,29.78,SE,135,0.0,3.1,87,0.00,,,0.00,WUHU21623XXSP,2013-06-23 10:10:00,
2013-06-23 03:12:00,60.4,56.6,29.78,SE,135,0.0,3.1,87,0.00,,,0.00,WUHU21623XXSP,2013-06-23 10:12:00,
2013-06-23 03:13:00,60.4,56.6,29.78,SSE,157,0.0,2.2,87,0.00,,,0.00,WUHU21623XXSP,2013-06-23 10:13:00,
2013-06-23 03:14:00,60.4,56.6,29.78,SSE,157,0.0,2.2,87,0.00,,,0.00,WUHU21623XXSP,2013-06-23 10:14:00,
2013-06-23 03:15:00,60.4,56.5,29.78,SSE,151,1.6,2.2,87,0.00,,,0.00,WUHU21623XXSP,2013-06-23 10:15:00,
2013-06-23 03:16:00,60.4,56.6,29.78,SSW,202,0.0,2.2,87,0.00,,,0.00,WUHU21623XXSP,2013-06-23 10:16:00,
2013-06-23 03:17:00,60.4,56.6,29.78,South,180,0.0,2.2,87,0.00,,,0.00,WUHU21623XXSP,2013-06-23 10:17:00,
2013-06-23 03:19:00,60.4,56.6,29.78,SSE,157,0.0,2.2,87,0.00,,,0.00,WUHU21623XXSP,2013-06-23 10:19:00,
2013-06-23 03:20:00,60.4,56.6,29.78,SSE,157,0.0,1.6,87,0.00,,,0.00,WUHU21623XXSP,2013-06-23 10:20:00,
2013-06-23 03:21:00,60.4,56.6,29.78,SSE,157,0.0,1.6,87,0.00,,,0.00,WUHU21623XXSP,2013-06-23 10:21:00,
2013-06-23 03:23:00,60.4,56.6,29.78,SSE,157,0.0,1.6,87,0.00,,,0.00,WUHU21623XXSP,2013-06-23 10:23:00,
2013-06-23 03:24:00,60.4,56.6,29.78,SSE,157,0.0,1.6,87,0.00,,,0.00,WUHU21623XXSP,2013-06-23 10:24:00,
2013-06-23 03:25:00,60.4,56.6,29.78,SSE,157,0.0,1.4,87,0.00,,,0.00,WUHU21623XXSP,2013-06-23 10:25:00,
2013-06-23 03:26:00,60.4,56.6,29.77,SE,135,0.0,1.4,87,0.00,,,0.00,WUHU21623XXSP,2013-06-23 10:26:00,
2013-06-23 03:28:00,60.4,56.6,29.77,ESE,112,0.0,1.4,87,0.00,,,0.00,WUHU21623XXSP,2013-06-23 10:28:00,
2013-06-23 03:29:00,60.4,56.6,29.77,ESE,112,0.0,1.4,87,0.00,,,0.00,WUHU21623XXSP,2013-06-23 10:29:00,
2013-06-23 03:31:00,60.4,56.6,29.77,SE,135,0.0,1.4,87,0.00,,,0.00,WUHU21623XXSP,2013-06-23 10:31:00,
2013-06-23 03:33:00,60.4,56.6,29.77,SE,135,0.0,1.4,87,0.00,,,0.00,WUHU21623XXSP,2013-06-23 10:33:00,
2013-06-23 03:34:00,60.4,56.6,29.77,SE,135,0.0,1.4,87,0.00,,,0.00,WUHU21623XXSP,2013-06-23 10:34:00,
2013-06-23 03:36:00,60.4,56.6,29.77,SE,135,0.0,1.4,87,0.00,,,0.00,WUHU21623XXSP,2013-06-23 10:36:00,
2013-06-23 03:37:00,60.4,56.6,29.77,SE,135,0.0,1.4,87,0.00,,,0.00,WUHU21623XXSP,2013-06-23 10:37:00,
2013-06-23 03:38:00,60.4,56.6,29.77,SE,135,0.0,1.4,87,0.00,,,0.00,WUHU21623XXSP,2013-06-23 10:38:00,
2013-06-23 03:39:00,60.4,56.6,29.77,SE,135,0.0,1.4,87,0.00,,,0.00,WUHU21623XXSP,2013-06-23 10:39:00,
2013-06-23 03:41:00,60.4,56.6,29.77,SE,135,0.0,1.4,87,0.00,,,0.00,WUHU21623XXSP,2013-06-23 10:41:00,
2013-06-23 03:42:00,60.4,56.6,29.77,SE,135,0.0,1.4,87,0.00,,,0.00,WUHU21623XXSP,2013-06-23 10:42:00,
2013-06-23 03:43:00,60.4,56.6,29.77,SE,135,0.0,1.4,87,0.00,,,0.00,WUHU21623XXSP,2013-06-23 10:43:00,
2013-06-23 03:44:00,60.4,56.6,29.77,SE,135,0.0,1.4,87,0.00,,,0.00,WUHU21623XXSP,2013-06-23 10:44:00,
2013-06-23 03:47:00,60.4,56.6,29.77,South,180,0.0,1.4,87,0.00,,,0.00,WUHU21623XXSP,2013-06-23 10:47:00,
2013-06-23 03:48:00,60.4,56.6,29.77,South,180,0.0,1.4,87,0.00,,,0.00,WUHU21623XXSP,2013-06-23 10:48:00,
2013-06-23 03:49:00,60.4,56.6,29.77,South,180,0.0,1.4,87,0.00,,,0.00,WUHU21623XXSP,2013-06-23 10:49:00,
2013-06-23 03:52:00,60.4,56.5,29.77,SSE,154,1.4,1.4,87,0.00,,,0.00,WUHU21623XXSP,2013-06-23 10:52:00,
2013-06-23 03:53:00,60.4,56.6,29.77,South,180,0.0,1.4,87,0.00,,,0.00,WUHU21623XXSP,2013-06-23 10:53:00,
2013-06-23 03:54:00,60.4,56.6,29.77,South,180,0.0,1.4,87,0.00,,,0.00,WUHU21623XXSP,2013-06-23 10:54:00,
2013-06-23 03:55:00,60.4,56.5,29.77,SSE,154,1.4,1.4,87,0.00,,,0.00,WUHU21623XXSP,2013-06-23 10:55:00,
2013-06-23 03:57:00,60.4,56.6,29.77,South,180,0.0,1.4,87,0.00,,,0.00,WUHU21623XXSP,2013-06-23 10:57:00,
2013-06-23 03:58:00,60.4,56.6,29.77,South,180,0.0,1.4,87,0.00,,,0.00,WUHU21623XXSP,2013-06-23 10:58:00,
2013-06-23 03:59:00,60.4,56.6,29.77,South,180,0.0,1.4,87,0.00,,,0.00,WUHU21623XXSP,2013-06-23 10:59:00,
2013-06-23 04:00:00,60.4,56.6,29.77,South,180,0.0,1.4,87,0.00,,,0.00,WUHU21623XXSP,2013-06-23 11:00:00,
2013-06-23 04:02:00,60.4,56.6,29.77,South,180,0.0,1.4,87,0.00,,,0.00,WUHU21623XXSP,2013-06-23 11:02:00,
2013-06-23 04:03:00,60.4,56.6,29.77,South,180,0.0,1.4,87,0.00,,,0.00,WUHU21623XXSP,2013-06-23 11:03:00,
2013-06-23 04:04:00,60.4,56.6,29.77,South,180,0.0,1.4,87,0.00,,,0.00,WUHU21623XXSP,2013-06-23 11:04:00,
2013-06-23 04:05:00,60.4,56.6,29.77,South,180,0.0,0.0,87,0.00,,,0.00,WUHU21623XXSP,2013-06-23 11:05:00,
2013-06-23 04:06:00,60.4,56.6,29.77,South,180,0.0,0.0,87,0.00,,,0.00,WUHU21623XXSP,2013-06-23 11:06:00,
2013-06-23 04:07:00,60.4,56.6,29.77,South,180,0.0,0.0,87,0.00,,,0.00,WUHU21623XXSP,2013-06-23 11:07:00,
2013-06-23 04:08:00,60.4,56.6,29.77,South,180,0.0,0.0,87,0.00,,,0.00,WUHU21623XXSP,2013-06-23 11:08:00,
2013-06-23 04:10:00,60.4,56.6,29.77,South,180,0.0,0.0,87,0.00,,,0.00,WUHU21623XXSP,2013-06-23 11:10:00,
2013-06-23 04:11:00,60.4,56.6,29.77,South,180,0.0,0.0,87,0.00,,,0.00,WUHU21623XXSP,2013-06-23 11:11:00,
2013-06-23 04:12:00,60.4,56.6,29.77,South,180,0.0,0.0,87,0.00,,,0.00,WUHU21623XXSP,2013-06-23 11:12:00,
2013-06-23 04:13:00,60.4,56.6,29.76,South,180,0.0,0.0,87,0.00,,,0.00,WUHU21623XXSP,2013-06-23 11:13:00,
2013-06-23 04:15:00,60.4,56.6,29.76,South,180,0.0,0.0,87,0.00,,,0.00,WUHU21623XXSP,2013-06-23 11:15:00,
2013-06-23 04:16:00,60.4,56.6,29.76,South,180,0.0,0.0,87,0.00,,,0.00,WUHU21623XXSP,2013-06-23 11:16:00,
2013-06-23 04:17:00,60.4,56.6,29.76,South,180,0.0,0.0,87,0.00,,,0.00,WUHU21623XXSP,2013-06-23 11:17:00,
2013-06-23 04:19:00,60.4,56.6,29.76,South,180,0.0,0.0,87,0.00,,,0.00,WUHU21623XXSP,2013-06-23 11:19:00,
2013-06-23 04:20:00,60.4,56.6,29.76,South,180,0.0,0.0,87,0.00,,,0.00,WUHU21623XXSP,2013-06-23 11:20:00,
2013-06-23 04:21:00,60.4,56.6,29.76,South,180,0.0,0.0,87,0.00,,,0.00,WUHU21623XXSP,2013-06-23 11:21:00,
2013-06-23 04:22:00,60.4,56.6,29.76,South,180,0.0,0.0,87,0.00,,,0.00,WUHU21623XXSP,2013-06-23 11:22:00,
2013-06-23 04:24:00,60.4,56.6,29.76,South,180,0.0,0.0,87,0.00,,,0.00,WUHU21623XXSP,2013-06-23 11:24:00,
2013-06-23 04:25:00,60.4,56.6,29.76,South,180,0.0,0.0,87,0.00,,,0.00,WUHU21623XXSP,2013-06-23 11:25:00,
2013-06-23 04:26:00,60.4,56.6,29.76,South,180,0.0,0.0,87,0.00,,,0.00,WUHU21623XXSP,2013-06-23 11:26:00,
2013-06-23 04:28:00,60.4,56.6,29.76,South,180,0.0,0.0,87,0.00,,,0.00,WUHU21623XXSP,2013-06-23 11:28:00,
2013-06-23 04:29:00,60.4,56.6,29.76,South,180,0.0,0.0,87,0.00,,,0.00,WUHU21623XXSP,2013-06-23 11:29:00,
2013-06-23 04:30:00,60.4,56.6,29.76,South,180,0.0,0.0,87,0.00,,,0.00,WUHU21623XXSP,2013-06-23 11:30:00,
2013-06-23 04:31:00,60.4,56.6,29.76,South,180,0.0,0.0,87,0.00,,,0.00,WUHU21623XXSP,2013-06-23 11:31:00,
2013-06-23 04:33:00,60.4,56.6,29.76,South,180,0.0,0.0,87,0.00,,,0.00,WUHU21623XXSP,2013-06-23 11:33:00,
2013-06-23 04:34:00,60.4,56.6,29.75,South,180,0.0,0.0,87,0.00,,,0.00,WUHU21623XXSP,2013-06-23 11:34:00,
2013-06-23 04:35:00,60.4,56.6,29.76,South,180,0.0,0.0,87,0.00,,,0.00,WUHU21623XXSP,2013-06-23 11:35:00,
2013-06-23 04:36:00,60.4,56.6,29.76,South,180,0.0,0.0,87,0.00,,,0.00,WUHU21623XXSP,2013-06-23 11:36:00,
2013-06-23 04:38:00,60.4,56.6,29.76,South,180,0.0,0.0,87,0.00,,,0.00,WUHU21623XXSP,2013-06-23 11:38:00,
2013-06-23 04:39:00,60.4,56.6,29.76,South,180,0.0,0.0,87,0.00,,,0.00,WUHU21623XXSP,2013-06-23 11:39:00,
2013-06-23 04:40:00,60.4,56.6,29.76,South,180,0.0,0.0,87,0.00,,,0.00,WUHU21623XXSP,2013-06-23 11:40:00,
2013-06-23 04:41:00,60.4,56.6,29.75,South,180,0.0,0.0,87,0.00,,,0.00,WUHU21623XXSP,2013-06-23 11:41:00,
2013-06-23 04:43:00,60.4,56.6,29.75,South,180,0.0,0.0,87,0.00,,,0.00,WUHU21623XXSP,2013-06-23 11:43:00,
2013-06-23 04:44:00,60.4,56.6,29.75,South,180,0.0,0.0,87,0.00,,,0.00,WUHU21623XXSP,2013-06-23 11:44:00,
2013-06-23 04:45:00,60.4,56.6,29.75,South,180,0.0,0.0,87,0.00,,,0.00,WUHU21623XXSP,2013-06-23 11:45:00,
2013-06-23 04:46:00,60.4,56.6,29.75,South,180,0.0,0.0,87,0.00,,,0.00,WUHU21623XXSP,2013-06-23 11:46:00,
2013-06-23 04:49:00,60.4,56.6,29.75,South,180,0.0,0.0,87,0.00,,,0.00,WUHU21623XXSP,2013-06-23 11:49:00,
2013-06-23 04:50:00,60.4,56.6,29.75,South,180,0.0,0.0,87,0.00,,,0.00,WUHU21623XXSP,2013-06-23 11:50:00,
2013-06-23 04:51:00,60.4,56.6,29.75,South,180,0.0,0.0,87,0.00,,,0.00,WUHU21623XXSP,2013-06-23 11:51:00,
2013-06-23 04:54:00,60.4,56.6,29.75,South,180,0.0,0.0,87,0.00,,,0.00,WUHU21623XXSP,2013-06-23 11:54:00,
2013-06-23 04:55:00,60.4,56.6,29.75,South,180,0.0,0.0,87,0.00,,,0.00,WUHU21623XXSP,2013-06-23 11:55:00,
2013-06-23 04:56:00,60.4,56.6,29.75,South,180,0.0,0.0,87,0.00,,,0.00,WUHU21623XXSP,2013-06-23 11:56:00,
2013-06-23 04:59:00,60.4,56.6,29.75,South,180,0.0,0.0,87,0.00,,,0.00,WUHU21623XXSP,2013-06-23 11:59:00,
2013-06-23 05:00:00,60.4,56.6,29.75,South,180,0.0,0.0,87,0.00,,,0.00,WUHU21623XXSP,2013-06-23 12:00:00,
2013-06-23 05:01:00,60.4,56.6,29.75,South,180,0.0,0.0,87,0.00,,,0.00,WUHU21623XXSP,2013-06-23 12:01:00,
2013-06-23 05:04:00,60.4,56.6,29.75,South,180,0.0,0.0,87,0.00,,,0.00,WUHU21623XXSP,2013-06-23 12:04:00,
2013-06-23 05:05:00,60.4,56.6,29.75,South,180,0.0,0.0,87,0.00,,,0.00,WUHU21623XXSP,2013-06-23 12:05:00,
2013-06-23 05:06:00,60.4,56.6,29.75,South,180,0.0,0.0,87,0.00,,,0.00,WUHU21623XXSP,2013-06-23 12:06:00,
2013-06-23 05:07:00,60.4,56.6,29.75,South,180,0.0,0.0,87,0.00,,,0.00,WUHU21623XXSP,2013-06-23 12:07:00,
2013-06-23 05:09:00,60.4,56.6,29.75,South,180,0.0,0.0,87,0.00,,,0.00,WUHU21623XXSP,2013-06-23 12:09:00,
2013-06-23 05:10:00,60.4,56.6,29.75,South,180,0.0,0.0,87,0.00,,,0.00,WUHU21623XXSP,2013-06-23 12:10:00,
2013-06-23 05:11:00,60.4,56.6,29.75,South,180,0.0,0.0,87,0.00,,,0.00,WUHU21623XXSP,2013-06-23 12:11:00,
2013-06-23 05:12:00,60.4,56.6,29.75,South,180,0.0,0.0,87,0.00,,,0.00,WUHU21623XXSP,2013-06-23 12:12:00,
2013-06-23 05:14:00,60.4,56.6,29.75,South,180,0.0,0.0,87,0.00,,,0.00,WUHU21623XXSP,2013-06-23 12:14:00,
2013-06-23 05:15:00,60.4,56.6,29.75,South,180,0.0,0.0,87,0.00,,,0.00,WUHU21623XXSP,2013-06-23 12:15:00,
2013-06-23 05:16:00,60.4,56.6,29.75,South,180,0.0,0.0,87,0.00,,,0.00,WUHU21623XXSP,2013-06-23 12:16:00,
2013-06-23 05:17:00,60.4,56.6,29.75,South,180,0.0,0.0,87,0.00,,,0.00,WUHU21623XXSP,2013-06-23 12:17:00,
2013-06-23 05:19:00,60.4,56.6,29.75,ENE,67,0.0,0.0,87,0.00,,,0.00,WUHU21623XXSP,2013-06-23 12:19:00,
2013-06-23 05:20:00,60.4,56.6,29.75,ENE,67,0.0,0.0,87,0.00,,,0.00,WUHU21623XXSP,2013-06-23 12:20:00,
2013-06-23 05:22:00,60.4,56.6,29.75,ENE,67,0.0,0.0,87,0.00,,,0.00,WUHU21623XXSP,2013-06-23 12:22:00,
2013-06-23 05:25:00,60.4,56.6,29.75,ENE,67,0.0,0.0,87,0.00,,,0.00,WUHU21623XXSP,2013-06-23 12:25:00,
2013-06-23 05:27:00,60.4,56.6,29.75,ENE,67,0.0,0.0,87,0.00,,,0.00,WUHU21623XXSP,2013-06-23 12:27:00,
2013-06-23 05:30:00,60.4,56.6,29.75,ENE,67,0.0,0.0,87,0.00,,,0.00,WUHU21623XXSP,2013-06-23 12:30:00,
2013-06-23 05:31:00,60.4,56.6,29.75,ENE,67,0.0,0.0,87,0.00,,,0.00,WUHU21623XXSP,2013-06-23 12:31:00,
2013-06-23 05:32:00,60.4,56.6,29.75,ENE,67,0.0,0.0,87,0.00,,,0.00,WUHU21623XXSP,2013-06-23 12:32:00,
2013-06-23 05:33:00,60.4,56.6,29.75,ENE,67,0.0,0.0,87,0.00,,,0.00,WUHU21623XXSP,2013-06-23 12:33:00,
2013-06-23 05:35:00,60.4,56.6,29.75,ENE,67,0.0,0.0,87,0.00,,,0.00,WUHU21623XXSP,2013-06-23 12:35:00,
2013-06-23 05:36:00,60.4,56.6,29.75,ENE,67,0.0,0.0,87,0.00,,,0.00,WUHU21623XXSP,2013-06-23 12:36:00,
2013-06-23 05:37:00,60.4,56.6,29.75,ENE,67,0.0,0.0,87,0.00,,,0.00,WUHU21623XXSP,2013-06-23 12:37:00,
2013-06-23 05:38:00,60.4,56.6,29.75,ENE,67,0.0,0.0,87,0.00,,,0.00,WUHU21623XXSP,2013-06-23 12:38:00,
2013-06-23 05:40:00,60.4,56.6,29.75,ENE,67,0.0,0.0,87,0.00,,,0.00,WUHU21623XXSP,2013-06-23 12:40:00,
2013-06-23 05:41:00,60.4,56.6,29.75,ENE,67,0.0,0.0,87,0.00,,,0.00,WUHU21623XXSP,2013-06-23 12:41:00,
2013-06-23 05:42:00,60.4,56.6,29.75,ENE,67,0.0,0.0,87,0.00,,,0.00,WUHU21623XXSP,2013-06-23 12:42:00,
2013-06-23 05:43:00,60.4,56.6,29.75,ENE,67,0.0,0.0,87,0.00,,,0.00,WUHU21623XXSP,2013-06-23 12:43:00,
2013-06-23 05:45:00,60.4,56.6,29.74,ENE,67,0.0,0.0,87,0.00,,,0.00,WUHU21623XXSP,2013-06-23 12:45:00,
2013-06-23 05:47:00,60.4,56.6,29.75,ENE,67,0.0,0.0,87,0.00,,,0.00,WUHU21623XXSP,2013-06-23 12:47:00,
2013-06-23 05:48:00,60.4,56.6,29.75,ENE,67,0.0,0.0,87,0.00,,,0.00,WUHU21623XXSP,2013-06-23 12:48:00,
2013-06-23 05:51:00,60.4,56.6,29.75,ENE,67,0.0,0.0,87,0.00,,,0.00,WUHU21623XXSP,2013-06-23 12:51:00,
2013-06-23 05:52:00,60.4,56.6,29.75,ENE,67,0.0,0.0,87,0.00,,,0.00,WUHU21623XXSP,2013-06-23 12:52:00,
2013-06-23 05:53:00,60.4,56.6,29.75,ENE,67,0.0,0.0,87,0.00,,,0.00,WUHU21623XXSP,2013-06-23 12:53:00,
2013-06-23 05:56:00,60.4,56.6,29.75,ENE,67,0.0,0.0,87,0.00,,,0.00,WUHU21623XXSP,2013-06-23 12:56:00,
2013-06-23 05:57:00,60.4,56.6,29.75,ENE,67,0.0,0.0,87,0.00,,,0.00,WUHU21623XXSP,2013-06-23 12:57:00,
2013-06-23 05:58:00,60.4,56.6,29.75,ENE,67,0.0,0.0,87,0.00,,,0.00,WUHU21623XXSP,2013-06-23 12:58:00,
2013-06-23 06:02:00,60.4,56.6,29.75,East,90,0.0,0.0,87,0.00,,,0.00,WUHU21623XXSP,2013-06-23 13:02:00,
2013-06-23 06:03:00,60.4,56.6,29.75,East,90,0.0,0.0,87,0.00,,,0.00,WUHU21623XXSP,2013-06-23 13:03:00,
2013-06-23 06:07:00,60.4,56.6,29.75,East,90,0.0,0.0,87,0.00,,,0.00,WUHU21623XXSP,2013-06-23 13:07:00,
2013-06-23 06:08:00,60.4,56.9,29.75,East,90,0.0,0.0,88,0.00,,,0.00,WUHU21623XXSP,2013-06-23 13:08:00,
2013-06-23 06:09:00,60.3,56.4,29.75,East,90,0.0,0.0,87,0.00,,,0.00,WUHU21623XXSP,2013-06-23 13:09:00,
2013-06-23 06:12:00,60.3,56.4,29.74,East,90,0.0,0.0,87,0.00,,,0.00,WUHU21623XXSP,2013-06-23 13:12:00,
2013-06-23 06:13:00,60.3,56.4,29.75,East,90,0.0,0.0,87,0.00,,,0.00,WUHU21623XXSP,2013-06-23 13:13:00,
2013-06-23 06:14:00,60.3,56.7,29.75,East,90,0.0,0.0,88,0.00,,,0.00,WUHU21623XXSP,2013-06-23 13:14:00,
2013-06-23 06:17:00,60.4,56.6,29.75,East,90,0.0,0.0,87,0.00,,,0.00,WUHU21623XXSP,2013-06-23 13:17:00,
2013-06-23 06:18:00,60.3,56.7,29.75,East,90,0.0,0.0,88,0.00,,,0.00,WUHU21623XXSP,2013-06-23 13:18:00,
2013-06-23 06:19:00,60.3,56.4,29.75,East,90,0.0,0.0,87,0.00,,,0.00,WUHU21623XXSP,2013-06-23 13:19:00,
2013-06-23 06:22:00,60.1,56.2,29.75,East,90,0.0,0.0,87,0.00,,,0.00,WUHU21623XXSP,2013-06-23 13:22:00,
2013-06-23 06:23:00,60.1,56.6,29.74,East,90,0.0,0.0,88,0.00,,,0.00,WUHU21623XXSP,2013-06-23 13:23:00,
2013-06-23 06:24:00,60.1,56.6,29.74,East,90,0.0,0.0,88,0.00,,,0.00,WUHU21623XXSP,2013-06-23 13:24:00,
2013-06-23 06:27:00,60.1,56.6,29.74,East,90,0.0,0.0,88,0.00,,,0.00,WUHU21623XXSP,2013-06-23 13:27:00,
2013-06-23 06:29:00,60.1,56.6,29.74,East,90,0.0,0.0,88,0.00,,,0.00,WUHU21623XXSP,2013-06-23 13:29:00,
2013-06-23 06:30:00,60.1,56.6,29.74,East,90,0.0,0.0,88,0.00,,,0.00,WUHU21623XXSP,2013-06-23 13:30:00,
2013-06-23 06:32:00,60.1,56.6,29.74,East,90,0.0,0.0,88,0.00,,,0.00,WUHU21623XXSP,2013-06-23 13:32:00,
2013-06-23 06:34:00,60.1,56.6,29.74,East,90,0.0,0.0,88,0.00,,,0.00,WUHU21623XXSP,2013-06-23 13:34:00,
2013-06-23 06:35:00,60.1,56.6,29.74,East,90,0.0,0.0,88,0.00,,,0.00,WUHU21623XXSP,2013-06-23 13:35:00,
2013-06-23 06:37:00,60.1,56.6,29.74,East,90,0.0,0.0,88,0.00,,,0.00,WUHU21623XXSP,2013-06-23 13:37:00,
2013-06-23 06:39:00,60.1,56.6,29.74,East,90,0.0,0.0,88,0.00,,,0.00,WUHU21623XXSP,2013-06-23 13:39:00,
2013-06-23 06:40:00,60.1,56.6,29.74,East,90,0.0,0.0,88,0.00,,,0.00,WUHU21623XXSP,2013-06-23 13:40:00,
2013-06-23 06:43:00,60.1,56.6,29.74,East,90,0.0,0.0,88,0.00,,,0.00,WUHU21623XXSP,2013-06-23 13:43:00,
2013-06-23 06:44:00,60.1,56.6,29.74,East,90,0.0,0.0,88,0.00,,,0.00,WUHU21623XXSP,2013-06-23 13:44:00,
2013-06-23 06:45:00,60.1,56.6,29.74,East,90,0.0,0.0,88,0.00,,,0.00,WUHU21623XXSP,2013-06-23 13:45:00,
2013-06-23 06:48:00,60.1,56.6,29.74,East,90,0.0,0.0,88,0.00,,,0.00,WUHU21623XXSP,2013-06-23 13:48:00,
2013-06-23 06:49:00,60.1,56.6,29.74,East,90,0.0,0.0,88,0.00,,,0.00,WUHU21623XXSP,2013-06-23 13:49:00,
2013-06-23 06:50:00,60.1,56.6,29.74,East,90,0.0,0.0,88,0.00,,,0.00,WUHU21623XXSP,2013-06-23 13:50:00,
2013-06-23 06:51:00,60.3,56.7,29.74,East,90,0.0,0.0,88,0.00,,,0.00,WUHU21623XXSP,2013-06-23 13:51:00,
2013-06-23 06:54:00,60.1,56.6,29.74,East,90,0.0,0.0,88,0.00,,,0.00,WUHU21623XXSP,2013-06-23 13:54:00,
2013-06-23 06:55:00,60.3,56.7,29.74,East,90,0.0,0.0,88,0.00,,,0.00,WUHU21623XXSP,2013-06-23 13:55:00,
2013-06-23 06:56:00,60.3,56.7,29.74,East,90,0.0,0.0,88,0.00,,,0.00,WUHU21623XXSP,2013-06-23 13:56:00,
2013-06-23 06:59:00,60.4,56.9,29.74,ENE,67,0.0,0.0,88,0.00,,,0.00,WUHU21623XXSP,2013-06-23 13:59:00,
2013-06-23 07:01:00,60.4,56.9,29.74,ENE,67,0.0,0.0,88,0.00,,,0.00,WUHU21623XXSP,2013-06-23 14:01:00,
2013-06-23 07:02:00,60.4,56.9,29.73,ENE,67,0.0,0.0,88,0.00,,,0.00,WUHU21623XXSP,2013-06-23 14:02:00,
2013-06-23 07:04:00,60.4,56.9,29.73,ENE,67,0.0,0.0,88,0.00,,,0.00,WUHU21623XXSP,2013-06-23 14:04:00,
2013-06-23 07:06:00,60.4,56.9,29.73,ENE,67,0.0,0.0,88,0.00,,,0.00,WUHU21623XXSP,2013-06-23 14:06:00,
2013-06-23 07:07:00,60.4,56.9,29.73,NE,45,0.0,0.0,88,0.00,,,0.00,WUHU21623XXSP,2013-06-23 14:07:00,
2013-06-23 07:09:00,60.4,56.9,29.73,NNE,22,0.0,0.9,88,0.00,,,0.00,WUHU21623XXSP,2013-06-23 14:09:00,
2013-06-23 07:10:00,60.4,56.9,29.73,NNE,22,0.0,0.9,88,0.00,,,0.00,WUHU21623XXSP,2013-06-23 14:10:00,
2013-06-23 07:11:00,60.4,56.9,29.73,NNE,22,0.0,0.9,88,0.00,,,0.00,WUHU21623XXSP,2013-06-23 14:11:00,
2013-06-23 07:12:00,60.4,56.9,29.73,NNE,22,0.0,0.9,88,0.00,,,0.00,WUHU21623XXSP,2013-06-23 14:12:00,
2013-06-23 07:14:00,60.6,57.1,29.73,NNE,22,0.0,0.9,88,0.00,,,0.00,WUHU21623XXSP,2013-06-23 14:14:00,
2013-06-23 07:15:00,60.6,57.1,29.73,NNE,22,0.0,0.9,88,0.00,,,0.00,WUHU21623XXSP,2013-06-23 14:15:00,
2013-06-23 07:16:00,60.6,57.1,29.73,West,270,0.0,0.9,88,0.00,,,0.00,WUHU21623XXSP,2013-06-23 14:16:00,
2013-06-23 07:17:00,60.6,57.1,29.73,West,270,0.0,0.0,88,0.00,,,0.00,WUHU21623XXSP,2013-06-23 14:17:00,
2013-06-23 07:19:00,60.6,57.1,29.73,West,270,0.0,0.0,88,0.00,,,0.00,WUHU21623XXSP,2013-06-23 14:19:00,
2013-06-23 07:20:00,60.6,57.1,29.73,West,270,0.0,0.0,88,0.00,,,0.00,WUHU21623XXSP,2013-06-23 14:20:00,
2013-06-23 07:21:00,60.6,57.1,29.73,West,270,0.0,0.0,88,0.00,,,0.00,WUHU21623XXSP,2013-06-23 14:21:00,
2013-06-23 07:22:00,60.6,57.1,29.73,West,270,0.0,0.0,88,0.00,,,0.00,WUHU21623XXSP,2013-06-23 14:22:00,
2013-06-23 07:25:00,60.6,57.1,29.73,West,270,0.0,0.0,88,0.00,,,0.00,WUHU21623XXSP,2013-06-23 14:25:00,
2013-06-23 07:26:00,60.6,57.1,29.73,West,270,0.0,0.0,88,0.00,,,0.00,WUHU21623XXSP,2013-06-23 14:26:00,
2013-06-23 07:27:00,60.6,57.1,29.73,West,270,0.0,0.0,88,0.00,,,0.00,WUHU21623XXSP,2013-06-23 14:27:00,
2013-06-23 07:31:00,60.8,57.3,29.73,West,270,0.0,0.0,88,0.00,,,0.00,WUHU21623XXSP,2013-06-23 14:31:00,
2013-06-23 07:32:00,60.8,57.3,29.73,West,270,0.0,0.0,88,0.00,,,0.00,WUHU21623XXSP,2013-06-23 14:32:00,
2013-06-23 07:33:00,60.8,57.3,29.73,West,270,0.0,0.0,88,0.00,,,0.00,WUHU21623XXSP,2013-06-23 14:33:00,
2013-06-23 07:36:00,61.0,57.4,29.73,West,270,0.0,0.0,88,0.00,,,0.00,WUHU21623XXSP,2013-06-23 14:36:00,
2013-06-23 07:37:00,61.0,57.4,29.73,West,270,0.0,0.0,88,0.00,,,0.00,WUHU21623XXSP,2013-06-23 14:37:00,
2013-06-23 07:38:00,61.0,57.4,29.73,West,270,0.0,0.0,88,0.00,,,0.00,WUHU21623XXSP,2013-06-23 14:38:00,
2013-06-23 07:41:00,61.0,57.4,29.73,West,270,0.0,0.0,88,0.00,,,0.00,WUHU21623XXSP,2013-06-23 14:41:00,
2013-06-23 07:42:00,61.0,57.4,29.73,West,270,0.0,0.0,88,0.00,,,0.00,WUHU21623XXSP,2013-06-23 14:42:00,
2013-06-23 07:43:00,61.0,57.4,29.73,West,270,0.0,0.0,88,0.00,,,0.00,WUHU21623XXSP,2013-06-23 14:43:00,
2013-06-23 07:50:00,61.0,57.4,29.73,WSW,247,0.0,0.0,88,0.00,,,0.00,WUHU21623XXSP,2013-06-23 14:50:00,
2013-06-23 07:51:00,61.0,57.4,29.73,WSW,247,0.0,0.0,88,0.00,,,0.00,WUHU21623XXSP,2013-06-23 14:51:00,
2013-06-23 07:55:00,61.0,57.4,29.73,WSW,247,0.0,0.0,88,0.00,,,0.00,WUHU21623XXSP,2013-06-23 14:55:00,
2013-06-23 07:56:00,61.0,57.4,29.73,WSW,247,0.0,0.0,88,0.00,,,0.00,WUHU21623XXSP,2013-06-23 14:56:00,
2013-06-23 11:17:00,66.9,66.6,29.69,SW,225,0.0,0.0,99,0.00,,,0.00,WUHU21623XXSP,2013-06-23 18:17:00,
2013-06-23 11:18:00,66.9,66.6,29.69,SW,225,0.0,0.0,99,0.00,,,0.00,WUHU21623XXSP,2013-06-23 18:18:00,
2013-06-23 11:22:00,66.9,66.6,29.69,SW,225,0.0,0.0,99,0.00,,,0.00,WUHU21623XXSP,2013-06-23 18:22:00,
2013-06-23 11:23:00,66.9,66.6,29.69,SW,225,0.0,0.0,99,0.00,,,0.00,WUHU21623XXSP,2013-06-23 18:23:00,
2013-06-23 11:27:00,67.3,67.0,29.69,SSW,202,0.0,0.0,99,0.00,,,0.00,WUHU21623XXSP,2013-06-23 18:27:00,
2013-06-23 11:28:00,67.3,67.0,29.69,SSW,202,0.0,0.0,99,0.00,,,0.00,WUHU21623XXSP,2013-06-23 18:28:00,
2013-06-23 11:32:00,67.3,67.0,29.69,SSW,202,0.0,0.0,99,0.00,,,0.00,WUHU21623XXSP,2013-06-23 18:32:00,
2013-06-23 11:33:00,67.3,67.0,29.69,SSW,202,0.0,0.0,99,0.00,,,0.00,WUHU21623XXSP,2013-06-23 18:33:00,
2013-06-23 11:51:00,67.8,61.5,29.69,West,270,0.0,0.0,80,0.00,,,0.00,WUHU21623XXSP,2013-06-23 18:51:00,
2013-06-23 11:52:00,67.8,61.5,29.69,West,270,0.0,0.0,80,0.00,,,0.00,WUHU21623XXSP,2013-06-23 18:52:00,
2013-06-23 11:56:00,67.8,61.1,29.68,West,270,0.0,0.0,79,0.00,,,0.00,WUHU21623XXSP,2013-06-23 18:56:00,
2013-06-23 11:57:00,67.8,61.1,29.68,West,270,0.0,0.0,79,0.00,,,0.00,WUHU21623XXSP,2013-06-23 18:57:00,
2013-06-23 12:01:00,67.8,61.1,29.68,WSW,247,0.0,0.0,79,0.00,,,0.00,WUHU21623XXSP,2013-06-23 19:01:00,
2013-06-23 12:02:00,67.8,61.5,29.68,WSW,247,0.0,0.0,80,0.00,,,0.00,WUHU21623XXSP,2013-06-23 19:02:00,
2013-06-23 12:06:00,68.2,62.2,29.68,ESE,112,0.0,0.0,81,0.00,,,0.00,WUHU21623XXSP,2013-06-23 19:06:00,
2013-06-23 12:07:00,68.2,62.2,29.68,ESE,112,0.0,0.0,81,0.00,,,0.00,WUHU21623XXSP,2013-06-23 19:07:00,
2013-06-23 12:08:00,68.4,62.3,29.68,ESE,112,0.0,0.0,81,0.00,,,0.00,WUHU21623XXSP,2013-06-23 19:08:00,
2013-06-23 12:11:00,68.5,62.2,29.67,SW,225,0.0,0.0,80,0.00,,,0.00,WUHU21623XXSP,2013-06-23 19:11:00,
2013-06-23 12:12:00,68.5,62.2,29.68,SW,225,0.0,0.0,80,0.00,,,0.00,WUHU21623XXSP,2013-06-23 19:12:00,
2013-06-23 12:13:00,68.7,62.3,29.68,SW,225,0.0,0.0,80,0.00,,,0.00,WUHU21623XXSP,2013-06-23 19:13:00,
2013-06-23 12:16:00,68.9,62.1,29.67,West,270,0.0,0.0,79,0.00,,,0.00,WUHU21623XXSP,2013-06-23 19:16:00,
2013-06-23 12:17:00,69.1,62.3,29.67,West,270,0.0,0.0,79,0.00,,,0.00,WUHU21623XXSP,2013-06-23 19:17:00,
2013-06-23 12:18:00,69.1,62.3,29.67,West,270,0.0,0.0,79,0.00,,,0.00,WUHU21623XXSP,2013-06-23 19:18:00,
2013-06-23 12:19:00,69.3,62.5,29.67,WSW,247,2.7,3.4,79,0.00,,,0.00,WUHU21623XXSP,2013-06-23 19:19:00,
2013-06-23 12:22:00,69.4,62.6,29.67,West,270,0.0,3.4,79,0.00,,,0.00,WUHU21623XXSP,2013-06-23 19:22:00,
2013-06-23 12:23:00,69.4,62.6,29.68,SSW,202,1.1,3.4,79,0.00,,,0.00,WUHU21623XXSP,2013-06-23 19:23:00,
2013-06-23 12:24:00,69.4,62.6,29.68,WSW,247,0.0,3.4,79,0.00,,,0.00,WUHU21623XXSP,2013-06-23 19:24:00,
2013-06-23 12:27:00,69.6,62.4,29.68,WSW,247,0.0,3.4,78,0.00,,,0.00,WUHU21623XXSP,2013-06-23 19:27:00,
2013-06-23 12:28:00,69.6,62.4,29.68,SSE,157,0.0,3.4,78,0.00,,,0.00,WUHU21623XXSP,2013-06-23 19:28:00,
2013-06-23 12:29:00,69.6,62.4,29.68,SSE,157,0.0,3.4,78,0.00,,,0.00,WUHU21623XXSP,2013-06-23 19:29:00,
2013-06-23 12:32:00,69.6,62.0,29.67,WSW,247,0.0,1.3,77,0.00,,,0.00,WUHU21623XXSP,2013-06-23 19:32:00,
2013-06-23 12:33:00,69.6,62.0,29.68,WSW,247,0.0,0.0,77,0.00,,,0.00,WUHU21623XXSP,2013-06-23 19:33:00,
2013-06-23 12:34:00,69.8,62.2,29.67,West,270,0.0,2.7,77,0.00,,,0.00,WUHU21623XXSP,2013-06-23 19:34:00,
2013-06-23 12:35:00,69.8,62.2,29.68,NW,315,1.6,2.7,77,0.00,,,0.00,WUHU21623XXSP,2013-06-23 19:35:00,
2013-06-23 12:37:00,69.8,62.2,29.67,West,270,3.6,4.5,77,0.00,,,0.00,WUHU21623XXSP,2013-06-23 19:37:00,
2013-06-23 12:38:00,69.6,62.0,29.67,West,270,0.0,4.5,77,0.00,,,0.00,WUHU21623XXSP,2013-06-23 19:38:00,
2013-06-23 12:39:00,69.6,61.6,29.67,SW,225,0.0,4.5,76,0.00,,,0.00,WUHU21623XXSP,2013-06-23 19:39:00,
2013-06-23 12:40:00,69.6,61.6,29.67,WSW,247,1.1,4.5,76,0.00,,,0.00,WUHU21623XXSP,2013-06-23 19:40:00,
2013-06-23 12:42:00,69.6,61.6,29.67,WSW,247,0.0,4.5,76,0.00,,,0.00,WUHU21623XXSP,2013-06-23 19:42:00,
2013-06-23 12:43:00,69.4,61.5,29.68,WSW,247,2.5,4.5,76,0.00,,,0.00,WUHU21623XXSP,2013-06-23 19:43:00,
2013-06-23 12:44:00,69.4,61.5,29.68,West,270,0.0,6.0,76,0.00,,,0.00,WUHU21623XXSP,2013-06-23 19:44:00,
2013-06-23 12:45:00,69.4,61.5,29.68,WSW,247,3.6,6.0,76,0.00,,,0.00,WUHU21623XXSP,2013-06-23 19:45:00,
2013-06-23 12:47:00,69.4,61.5,29.68,West,270,0.0,6.0,76,0.00,,,0.00,WUHU21623XXSP,2013-06-23 19:47:00,
2013-06-23 12:48:00,69.1,61.2,29.68,NNW,337,2.0,6.0,76,0.00,,,0.00,WUHU21623XXSP,2013-06-23 19:48:00,
2013-06-23 12:49:00,69.1,61.2,29.68,WSW,247,0.0,6.0,76,0.00,,,0.00,WUHU21623XXSP,2013-06-23 19:49:00,
2013-06-23 12:50:00,68.9,61.0,29.68,West,270,0.0,6.0,76,0.00,,,0.00,WUHU21623XXSP,2013-06-23 19:50:00,
2013-06-23 12:53:00,68.7,60.8,29.68,SW,225,4.3,6.0,76,0.00,,,0.00,WUHU21623XXSP,2013-06-23 19:53:00,
2013-06-23 12:54:00,68.7,60.8,29.68,West,270,0.0,5.8,76,0.00,,,0.00,WUHU21623XXSP,2013-06-23 19:54:00,
2013-06-23 12:55:00,68.5,60.7,29.68,SW,225,3.4,5.8,76,0.00,,,0.00,WUHU21623XXSP,2013-06-23 19:55:00,
2013-06-23 12:58:00,68.5,60.7,29.68,WSW,247,3.8,5.8,76,0.00,,,0.00,WUHU21623XXSP,2013-06-23 19:58:00,
2013-06-23 12:59:00,68.5,60.7,29.68,WSW,247,7.2,7.2,76,0.00,,,0.00,WUHU21623XXSP,2013-06-23 19:59:00,
2013-06-23 13:01:00,68.4,60.5,29.68,SW,225,2.5,7.2,76,0.00,,,0.00,WUHU21623XXSP,2013-06-23 20:01:00,
2013-06-23 13:03:00,68.2,60.4,29.68,SW,225,5.4,7.2,76,0.00,,,0.00,WUHU21623XXSP,2013-06-23 20:03:00,
2013-06-23 13:04:00,68.2,60.4,29.68,SW,225,3.1,7.2,76,0.00,,,0.00,WUHU21623XXSP,2013-06-23 20:04:00,
2013-06-23 13:05:00,68.0,60.2,29.68,SSE,157,4.3,7.2,76,0.00,,,0.00,WUHU21623XXSP,2013-06-23 20:05:00,
2013-06-23 13:06:00,67.8,60.0,29.68,WSW,247,5.6,7.2,76,0.00,,,0.00,WUHU21623XXSP,2013-06-23 20:06:00,
2013-06-23 13:08:00,67.8,60.0,29.68,SSW,202,0.0,7.2,76,0.00,,,0.00,WUHU21623XXSP,2013-06-23 20:08:00,
2013-06-23 13:09:00,67.8,60.0,29.68,West,270,0.0,6.0,76,0.00,,,0.00,WUHU21623XXSP,2013-06-23 20:09:00,
2013-06-23 13:10:00,67.6,59.8,29.68,WNW,292,6.5,6.9,76,0.00,,,0.00,WUHU21623XXSP,2013-06-23 20:10:00,
2013-06-23 13:12:00,67.3,59.5,29.68,West,270,5.4,6.9,76,0.00,,,0.00,WUHU21623XXSP,2013-06-23 20:12:00,
2013-06-23 13:13:00,67.3,59.5,29.68,West,270,2.9,7.8,76,0.00,,,0.00,WUHU21623XXSP,2013-06-23 20:13:00,
2013-06-23 13:14:00,67.1,59.3,29.68,NW,315,0.0,7.8,76,0.00,,,0.00,WUHU21623XXSP,2013-06-23 20:14:00,
2013-06-23 13:15:00,66.9,59.5,29.68,West,270,3.4,7.8,77,0.00,,,0.00,WUHU21623XXSP,2013-06-23 20:15:00,
2013-06-23 13:17:00,66.7,59.3,29.68,WNW,292,0.0,7.8,77,0.00,,,0.00,WUHU21623XXSP,2013-06-23 20:17:00,
2013-06-23 13:18:00,66.7,59.3,29.68,WSW,247,4.7,7.8,77,0.00,,,0.00,WUHU21623XXSP,2013-06-23 20:18:00,
2013-06-23 13:19:00,66.6,59.5,29.68,WSW,247,0.0,7.8,78,0.00,,,0.00,WUHU21623XXSP,2013-06-23 20:19:00,
2013-06-23 13:20:00,66.4,59.3,29.68,West,270,6.5,7.8,78,0.00,,,0.00,WUHU21623XXSP,2013-06-23 20:20:00,
2013-06-23 13:22:00,66.2,59.1,29.68,West,270,0.0,7.8,78,0.00,,,0.00,WUHU21623XXSP,2013-06-23 20:22:00,
2013-06-23 13:23:00,66.0,59.0,29.68,SW,225,3.4,9.4,78,0.00,,,0.00,WUHU21623XXSP,2013-06-23 20:23:00,
2013-06-23 13:24:00,66.0,59.0,29.68,SSW,202,5.6,9.4,78,0.00,,,0.00,WUHU21623XXSP,2013-06-23 20:24:00,
2013-06-23 13:25:00,66.0,59.0,29.68,SW,225,5.8,9.4,78,0.00,,,0.00,WUHU21623XXSP,2013-06-23 20:25:00,
2013-06-23 13:27:00,65.7,59.0,29.67,WSW,247,3.6,9.4,79,0.00,,,0.00,WUHU21623XXSP,2013-06-23 20:27:00,
2013-06-23 13:29:00,65.7,59.0,29.67,WSW,247,3.1,9.4,79,0.00,,,0.00,WUHU21623XXSP,2013-06-23 20:29:00,
2013-06-23 13:30:00,65.5,58.8,29.67,West,270,3.6,9.4,79,0.00,,,0.00,WUHU21623XXSP,2013-06-23 20:30:00,
2013-06-23 13:31:00,65.5,58.8,29.67,West,270,2.5,9.4,79,0.00,,,0.00,WUHU21623XXSP,2013-06-23 20:31:00,
2013-06-23 13:32:00,65.5,58.8,29.67,WSW,247,0.0,9.4,79,0.00,,,0.00,WUHU21623XXSP,2013-06-23 20:32:00,
2013-06-23 13:34:00,65.3,59.0,29.67,West,270,0.0,5.8,80,0.00,,,0.00,WUHU21623XXSP,2013-06-23 20:34:00,
2013-06-23 13:35:00,65.3,59.0,29.67,WSW,247,5.1,6.0,80,0.00,,,0.00,WUHU21623XXSP,2013-06-23 20:35:00,
2013-06-23 13:36:00,65.3,59.0,29.67,NW,315,5.4,6.0,80,0.00,,,0.00,WUHU21623XXSP,2013-06-23 20:36:00,
2013-06-23 13:37:00,65.3,59.0,29.67,WSW,247,5.6,6.0,80,0.00,,,0.00,WUHU21623XXSP,2013-06-23 20:37:00,
2013-06-23 13:39:00,65.3,59.0,29.67,WSW,247,3.8,6.5,80,0.00,,,0.00,WUHU21623XXSP,2013-06-23 20:39:00,
2013-06-23 13:40:00,65.3,59.3,29.67,West,270,5.1,6.5,81,0.00,,,0.00,WUHU21623XXSP,2013-06-23 20:40:00,
2013-06-23 13:41:00,65.3,59.3,29.67,West,270,1.1,6.5,81,0.00,,,0.00,WUHU21623XXSP,2013-06-23 20:41:00,
2013-06-23 13:42:00,65.1,59.1,29.67,West,270,0.0,6.5,81,0.00,,,0.00,WUHU21623XXSP,2013-06-23 20:42:00,
2013-06-23 13:44:00,65.1,59.1,29.67,WSW,247,0.0,6.5,81,0.00,,,0.00,WUHU21623XXSP,2013-06-23 20:44:00,
2013-06-23 13:46:00,65.1,59.1,29.67,East,90,0.0,6.5,81,0.00,,,0.00,WUHU21623XXSP,2013-06-23 20:46:00,
2013-06-23 13:48:00,65.1,59.1,29.67,NW,315,1.6,6.5,81,0.00,,,0.00,WUHU21623XXSP,2013-06-23 20:48:00,
2013-06-23 13:49:00,65.1,59.1,29.67,NW,315,1.6,5.1,81,0.00,,,0.00,WUHU21623XXSP,2013-06-23 20:49:00,
2013-06-23 13:51:00,65.1,59.1,29.67,NW,315,1.6,5.1,81,0.00,,,0.00,WUHU21623XXSP,2013-06-23 20:51:00,
2013-06-23 13:52:00,65.1,59.1,29.67,SSW,202,5.6,5.6,81,0.00,,,0.00,WUHU21623XXSP,2013-06-23 20:52:00,
2013-06-23 13:54:00,65.1,59.1,29.67,SW,225,4.0,5.6,81,0.00,,,0.00,WUHU21623XXSP,2013-06-23 20:54:00,
2013-06-23 13:56:00,65.1,59.1,29.67,West,270,2.2,5.6,81,0.00,,,0.00,WUHU21623XXSP,2013-06-23 20:56:00,
2013-06-23 13:57:00,65.1,59.1,29.67,West,270,2.2,5.6,81,0.00,,,0.00,WUHU21623XXSP,2013-06-23 20:57:00,
2013-06-23 13:59:00,65.1,59.1,29.67,West,270,2.2,5.6,81,0.00,,,0.00,WUHU21623XXSP,2013-06-23 20:59:00,
2013-06-23 14:01:00,65.1,59.1,29.67,West,270,2.2,5.6,81,0.00,,,0.00,WUHU21623XXSP,2013-06-23 21:01:00,
2013-06-23 14:02:00,65.1,59.1,29.67,West,270,2.2,5.6,81,0.00,,,0.00,WUHU21623XXSP,2013-06-23 21:02:00,
2013-06-23 14:03:00,65.1,59.1,29.67,West,270,2.2,4.7,81,0.00,,,0.00,WUHU21623XXSP,2013-06-23 21:03:00,
2013-06-23 14:04:00,65.1,59.1,29.67,West,270,2.2,2.2,81,0.00,,,0.00,WUHU21623XXSP,2013-06-23 21:04:00,
2013-06-23 14:53:00,64.9,58.6,29.67,SSE,157,0.0,0.0,80,0.00,,,0.00,WUHU21623XXSP,2013-06-23 21:53:00,
2013-06-23 14:58:00,64.9,58.6,29.67,SSE,157,0.0,0.0,80,0.00,,,0.00,WUHU21623XXSP,2013-06-23 21:58:00,
2013-06-23 14:59:00,64.9,58.6,29.67,SSE,157,0.0,0.0,80,0.00,,,0.00,WUHU21623XXSP,2013-06-23 21:59:00,
2013-06-23 15:03:00,64.9,58.6,29.67,SSE,157,0.0,0.0,80,0.00,,,0.00,WUHU21623XXSP,2013-06-23 22:03:00,
2013-06-23 15:30:00,25.2,3.0,29.66,West,270,0.0,0.0,38,0.00,,,0.00,WUHU21623XXSP,2013-06-23 22:30:00,
2013-06-23 16:13:00,65.5,59.5,29.65,SW,225,1.3,1.3,81,0.04,,,0.00,WUHU21623XXSP,2013-06-23 23:13:00,
2013-06-23 16:17:00,65.5,59.5,29.65,SW,225,0.0,1.3,81,0.04,,,0.04,WUHU21623XXSP,2013-06-23 23:17:00,
2013-06-23 16:18:00,65.5,59.5,29.65,SW,225,0.0,1.3,81,0.04,,,0.04,WUHU21623XXSP,2013-06-23 23:18:00,
2013-06-23 16:22:00,65.3,59.3,29.65,West,270,0.0,1.3,81,0.04,,,0.04,WUHU21623XXSP,2013-06-23 23:22:00,
2013-06-23 16:23:00,65.3,59.3,29.65,West,270,0.0,0.0,81,0.04,,,0.04,WUHU21623XXSP,2013-06-23 23:23:00,
2013-06-23 16:27:00,65.1,59.1,29.65,WSW,247,0.0,0.0,81,0.04,,,0.04,WUHU21623XXSP,2013-06-23 23:27:00,
2013-06-23 16:28:00,65.1,59.1,29.65,WSW,247,0.0,0.0,81,0.04,,,0.04,WUHU21623XXSP,2013-06-23 23:28:00,
2013-06-23 16:29:00,65.1,59.1,29.65,WSW,247,0.0,0.0,81,0.04,,,0.04,WUHU21623XXSP,2013-06-23 23:29:00,